This is the latest recevied weather packets stored in our database for station/object DL3MEB-6. If no packets are shown the sender has not sent any weather packets the latest 10 day(s).
| Time | Temp. | Humidity | Pressure | Rain* | Wind** | Luminosity | Snow |
|---|---|---|---|---|---|---|---|
| 1778031051 | 11.11° C | 88% | 1006.9 hPa | 0 mm | - | - | - |
| 1778030149 | 11.67° C | 88% | 1006.7 hPa | 0 mm | - | - | - |
| 1778029243 | 11.67° C | 88% | 1006.5 hPa | 0 mm | - | - | - |
| 1778028334 | 11.67° C | 87% | 1006.7 hPa | 0 mm | - | - | - |
| 1778027423 | 12.22° C | 86% | 1006.8 hPa | 0 mm | - | - | - |
| 1778026513 | 12.22° C | 85% | 1006.7 hPa | 0 mm | - | - | - |
| 1778025614 | 12.78° C | 84% | 1006.8 hPa | 0 mm | - | - | - |
| 1778024704 | 12.78° C | 84% | 1006.9 hPa | 0 mm | - | - | - |
| 1778023798 | 13.33° C | 82% | 1007 hPa | 0 mm | - | - | - |
| 1778022890 | 13.33° C | 81% | 1007 hPa | 0 mm | - | - | - |
| 1778021981 | 13.89° C | 83% | 1007.2 hPa | 0 mm | - | - | - |
| 1778021070 | 13.89° C | 84% | 1007.1 hPa | 0 mm | - | - | - |
| 1778020161 | 14.44° C | 84% | 1006.9 hPa | 0 mm | - | - | - |
| 1778019262 | 14.44° C | 83% | 1007 hPa | 0 mm | - | - | - |
| 1778018350 | 15° C | 79% | 1007 hPa | 0 mm | - | - | - |
| 1778017449 | 15° C | 76% | 1007 hPa | 0 mm | - | - | - |
| 1778016549 | 15° C | 73% | 1007.2 hPa | 0 mm | - | - | - |
| 1778015648 | 15° C | 72% | 1007.3 hPa | 0 mm | - | - | - |
| 1778014738 | 15° C | 72% | 1007.2 hPa | 0 mm | - | - | - |
| 1778013830 | 15° C | 70% | 1007.2 hPa | 0 mm | - | - | - |
| 1778012923 | 15° C | 70% | 1006.9 hPa | 0 mm | - | - | - |
| 1778012009 | 15° C | 70% | 1006.8 hPa | 0 mm | - | - | - |
| 1778011098 | 15.56° C | 69% | 1006.3 hPa | 0 mm | - | - | - |
| 1778010194 | 15.56° C | 68% | - | 0 mm | - | - | - |
| 1778010190 | 15.56° C | 68% | 1006 hPa | 0 mm | - | - | - |
* Rain latest hour (hover to see other rain measurements)
** Current wind speed in m/s (hover to see current wind gust speed)